Lapse_Rate
7.7 7.5 7.4 7.3 7.3 7.0 6.7 6.4 6.4 6.2 6.2 6.2 6.1 5.7 5.8 6.1 5.7 5.7 6.2 5.9 6.0 6.0 5.3 5.3 5.3 5.4 5.4 4.9 4.7 4.7 4.9 5.0 4.9 5.2 4.9 5.3 6.5 7.0 7.0 7.0 6.9 6.8 7.0
7.7 7.7 7.7 7.6 7.4 7.2 6.9 6.7 6.6 6.4 6.0 6.0 6.1 5.7 5.8 5.9 6.4 6.2 6.1 6.5 6.6 5.7 5.6 5.5 5.4 5.2 4.9 4.5 4.6 4.9 5.0 4.8 5.3 6.1 6.2 6.7 6.7 6.9 7.0 6.9 6.9 6.8 7.1
7.9 7.6 7.5 7.4 7.3 7.1 6.8 6.8 6.5 6.2 6.2 6.2 6.2 6.1 6.4 6.2 6.4 6.3 6.5 6.5 5.7 5.4 5.2 5.2 5.1 4.9 4.7 4.6 4.5 4.4 4.3 4.6 5.1 6.3 6.9 6.9 6.9 6.9 7.0 6.9 6.8 6.8 7.1
7.7 7.6 7.5 7.4 7.3 7.0 6.8 6.5 6.2 6.2 6.2 6.3 6.2 6.1 6.1 6.4 6.5 6.4 6.3 5.6 5.5 5.1 5.1 5.1 5.0 4.8 4.6 4.8 4.5 4.3 4.7 5.1 5.7 6.8 7.1 7.1 7.0 6.9 6.9 6.9 6.9 6.9 7.3
7.7 7.6 7.5 7.2 7.0 6.7 6.6 6.6 6.3 6.2 6.1 5.8 6.1 6.1 6.2 6.3 6.3 6.6 6.3 5.6 5.2 5.1 5.2 5.2 5.0 4.8 4.7 5.0 5.1 5.3 5.5 5.7 6.7 7.1 7.1 7.1 7.0 6.8 6.7 6.7 6.9 7.1 7.5
7.6 7.4 7.2 7.0 6.8 6.7 6.5 6.4 6.3 6.2 5.8 6.0 6.0 6.1 6.0 6.2 6.6 5.5 5.3 5.3 5.2 5.2 5.1 5.1 5.2 4.9 5.2 5.4 5.6 5.9 6.3 6.6 7.1 7.2 7.2 7.1 7.0 6.9 6.8 6.9 7.0 7.3 7.6
7.4 7.1 6.9 6.7 6.5 6.3 6.3 6.2 6.0 5.8 5.5 5.4 5.7 6.0 5.8 6.0 5.6 5.3 5.2 5.1 5.1 5.1 5.1 5.0 5.0 5.2 5.5 5.8 6.1 6.4 6.9 7.3 7.3 7.1 7.1 7.2 7.0 7.0 7.0 7.0 7.1 7.4 7.7
7.0 6.8 6.6 6.4 6.3 6.3 6.1 6.0 5.8 5.5 5.5 5.8 5.8 5.8 5.7 5.6 5.6 5.3 5.2 5.1 5.0 5.0 4.8 5.0 5.3 5.5 5.8 6.0 6.5 6.8 7.4 7.5 7.4 7.3 7.2 7.1 7.1 7.1 7.0 7.1 7.3 7.5 7.8
6.6 6.5 6.4 6.3 6.2 6.1 5.9 5.7 5.5 5.6 5.6 5.5 5.5 5.6 5.4 5.6 5.3 5.3 5.1 4.9 4.8 4.9 5.0 5.2 5.5 5.7 6.1 6.4 7.0 7.3 7.4 7.3 7.3 7.3 7.3 7.2 7.2 7.2 7.1 7.2 7.4 7.5 7.8
6.3 6.2 6.2 6.1 5.9 5.8 5.6 5.5 5.5 5.6 5.4 5.4 5.5 5.6 5.6 5.4 5.1 4.9 4.7 4.7 4.9 5.1 5.4 5.5 5.7 6.1 6.5 7.0 7.5 7.5 7.5 7.2 7.2 7.3 7.3 7.2 7.2 7.2 7.2 7.3 7.4 7.6 7.7
6.1 6.1 6.0 5.9 5.7 5.6 5.5 5.3 5.3 5.4 5.3 5.3 5.2 5.1 5.0 4.9 4.9 4.8 4.8 4.9 5.1 5.1 5.2 5.5 5.9 6.5 7.2 7.4 7.6 7.4 7.5 7.2 7.0 7.0 7.1 7.2 7.2 7.2 7.3 7.5 7.6 7.7 7.8
6.1 6.0 5.9 5.8 5.6 5.4 5.4 5.3 5.2 5.0 4.9 5.0 5.1 5.0 4.8 4.8 4.9 4.9 5.1 5.0 4.9 5.0 5.3 5.6 6.1 6.8 7.3 7.4 7.4 7.4 7.4 7.2 7.0 7.0 7.2 7.2 7.1 7.2 7.3 7.5 7.6 7.7 7.7
6.0 5.8 5.6 5.4 5.3 5.1 5.0 4.8 4.7 4.7 4.7 4.8 4.8 4.8 4.9 5.0 5.0 5.1 5.2 5.4 5.8 6.0 6.2 6.4 6.7 7.0 7.2 7.2 7.2 7.3 7.2 7.1 7.3 7.4 7.5 7.5 7.3 7.4 7.5 7.8 7.7 7.7 7.8
5.7 5.5 5.3 5.1 4.9 4.8 4.7 4.7 4.6 4.7 4.7 4.6 4.7 4.7 4.8 4.8 4.8 4.9 5.2 5.5 5.8 5.9 6.2 6.6 6.7 6.6 6.6 6.6 6.6 6.9 7.3 7.4 7.6 7.6 7.7 7.7 7.5 7.9 7.9 7.8 7.8 7.9 8.0
5.3 5.1 4.9 4.8 4.7 4.6 4.5 4.4 4.4 4.4 4.5 4.6 4.7 4.7 4.7 4.8 4.9 5.1 5.3 5.3 5.3 5.3 5.6 6.0 6.3 6.3 6.1 6.2 6.4 6.8 7.6 7.5 7.8 7.9 8.0 8.1 8.0 8.0 8.1 8.0 7.9 8.1 8.1
4.9 4.8 4.8 4.7 4.5 4.4 4.3 4.3 4.5 4.4 4.5 4.7 4.7 4.7 4.9 5.1 5.3 5.5 5.5 5.5 5.5 5.6 5.8 5.8 5.8 5.9 5.8 6.1 6.8 7.2 7.0 7.1 7.7 8.1 8.2 8.2 8.1 8.1 8.2 8.1 8.0 8.0 8.1
4.7 4.6 4.6 4.6 4.5 4.4 4.4 4.5 4.6 4.7 4.9 5.0 5.0 5.1 5.3 5.6 5.7 5.8 5.7 5.5 5.5 5.6 5.6 5.7 5.8 5.9 6.3 6.4 6.6 7.0 7.1 7.1 7.2 8.0 8.3 8.2 8.2 8.2 8.2 8.2 8.1 8.2 8.1
4.5 4.6 4.6 4.5 4.4 4.4 4.5 4.7 4.7 4.8 4.8 4.9 5.0 5.3 5.7 5.8 5.9 5.6 5.4 5.5 5.6 5.5 5.5 5.7 5.6 6.1 6.3 6.4 6.5 6.6 6.8 6.9 7.1 7.7 8.4 8.3 8.1 8.1 8.2 8.2 8.2 8.2 8.1
4.5 4.5 4.4 4.4 4.3 4.4 4.6 4.7 4.8 4.8 4.9 5.1 5.4 5.7 5.9 6.1 5.9 5.7 5.7 5.5 5.4 5.4 5.6 5.6 5.7 5.9 5.9 5.9 6.3 6.6 6.8 7.1 7.3 7.3 8.1 8.2 8.4 8.2 8.1 8.2 8.3 8.2 8.1
4.3 4.3 4.4 4.4 4.4 4.5 4.7 4.8 4.9 5.0 5.2 5.5 5.8 6.0 6.2 6.1 6.0 6.0 5.7 5.4 5.3 5.3 5.2 5.1 5.4 5.6 5.5 6.2 6.5 6.6 6.8 7.1 7.2 7.4 8.1 8.3 8.2 8.3 8.3 8.2 8.2 8.2 8.0
4.3 4.3 4.3 4.4 4.5 4.7 4.9 5.1 5.2 5.4 5.7 5.9 6.1 6.2 6.0 6.0 6.0 5.8 5.5 5.2 5.1 5.1 5.0 5.1 5.5 5.5 5.5 6.1 6.7 6.9 6.9 7.3 7.5 7.9 8.3 8.3 8.1 8.2 8.4 8.4 8.3 8.2 8.1
4.2 4.3 4.5 4.6 4.8 4.9 5.1 5.3 5.6 5.8 5.9 6.2 6.3 6.1 6.0 6.0 5.8 5.6 5.2 5.0 5.0 5.0 5.0 5.4 5.6 5.5 5.4 5.9 6.6 7.1 7.1 7.7 7.7 8.0 8.4 8.3 8.3 8.2 8.4 8.4 8.3 8.2 8.1
4.2 4.3 4.6 4.7 4.9 5.2 5.4 5.7 5.8 6.0 6.1 6.2 6.1 6.1 6.0 5.9 5.6 5.4 5.1 5.0 5.2 5.2 5.5 5.7 5.7 5.5 5.4 5.7 6.4 7.1 7.4 7.8 8.3 8.3 8.4 8.3 8.2 8.2 8.4 8.4 8.4 8.4 8.2
4.4 4.5 4.6 5.0 5.3 5.6 5.8 5.8 6.0 6.0 6.1 6.0 6.0 5.9 5.8 5.7 5.4 5.2 5.0 5.2 5.4 5.5 5.6 5.7 6.0 5.6 5.4 5.7 6.3 6.8 7.4 8.0 8.4 8.3 8.3 8.3 8.3 8.1 8.3 8.4 8.5 8.3 8.2
4.4 4.8 5.1 5.4 5.7 5.9 6.0 5.9 5.9 5.9 6.0 5.9 5.8 5.7 5.6 5.4 5.2 5.1 5.1 5.6 5.6 5.7 5.7 5.9 6.1 5.7 5.5 5.8 6.5 6.9 7.5 8.1 8.3 8.4 8.3 8.2 8.1 8.1 8.4 8.5 8.5 8.3 8.2
4.8 5.1 5.4 5.7 5.9 6.0 5.9 5.8 5.9 5.9 5.8 5.7 5.6 5.5 5.4 5.2 5.1 5.2 5.5 5.8 5.7 5.8 5.8 6.1 6.2 6.0 5.8 6.1 6.8 7.2 7.5 7.9 8.2 8.4 8.3 8.3 8.2 8.2 8.4 8.5 8.4 8.3 8.2
Wind_Speed
15 14 14 13 9 9 11 12 13 14 14 13 12 11 12 9 13 8 9 8 6 7 8 10 10 8 7 7 7 8 8 9 10 10 9 10 8 11 16 17 19 20 21
10 10 10 10 11 12 12 11 11 12 9 11 13 12 11 12 9 9 9 4 3 10 13 12 11 8 11 11 8 10 10 10 10 14 11 10 11 11 15 15 17 19 19
5 7 9 9 9 9 9 8 9 11 11 11 12 12 10 10 11 9 6 2 6 13 13 13 13 14 13 11 11 10 10 9 9 10 11 10 9 9 10 13 13 16 18
5 6 7 7 7 8 8 9 11 12 12 12 12 12 10 12 10 7 3 6 11 12 12 14 14 15 16 14 13 13 11 10 11 10 10 10 9 9 8 10 10 9 10
4 4 4 3 3 4 5 6 6 8 8 8 10 6 10 7 6 4 3 8 11 13 14 15 16 17 17 15 12 13 13 11 10 10 10 10 9 9 9 8 10 10 11
5 5 4 4 3 3 4 5 7 9 9 8 9 9 8 4 7 2 6 8 13 14 14 15 16 16 15 15 17 13 11 12 12 11 11 11 12 10 9 9 9 9 11
8 6 6 5 6 6 6 7 8 8 8 8 8 8 7 5 4 6 7 8 11 14 15 15 15 13 13 16 18 13 12 10 12 12 13 12 12 10 10 10 11 10 11
10 9 8 8 8 8 9 9 10 9 10 10 9 8 6 8 5 7 10 7 13 16 16 17 17 18 17 15 16 15 16 14 13 11 14 13 11 11 10 10 10 12 11
12 11 11 10 10 10 9 9 8 7 6 5 4 6 8 10 5 10 9 11 14 16 15 16 16 17 16 13 16 17 16 14 13 16 15 10 6 6 12 8 9 9 10
12 12 12 11 10 9 8 6 3 2 1 2 2 3 5 8 12 9 9 10 13 11 15 16 14 15 16 13 16 16 15 14 13 12 11 16 17 18 19 16 10 10 10
12 11 10 9 9 7 7 6 4 2 2 2 4 6 8 9 10 6 7 10 10 11 12 13 11 11 16 16 19 15 16 14 11 11 11 10 11 11 10 18 17 10 10
10 10 9 8 5 4 4 3 3 3 3 4 4 6 5 7 5 7 7 10 13 11 13 12 13 13 14 18 17 22 17 10 9 10 10 10 10 10 10 12 16 15 15
9 9 8 7 6 6 5 5 3 4 4 5 5 6 7 7 9 10 15 20 18 12 11 16 23 23 23 16 23 24 18 11 11 11 11 12 11 10 11 10 12 13 15
9 8 7 7 5 5 4 4 4 4 5 5 5 6 7 7 8 10 11 12 15 14 15 14 16 16 18 16 13 15 14 13 12 12 12 11 8 9 9 9 9 8 8
8 6 6 5 4 4 4 5 4 7 6 5 6 6 7 8 8 15 15 12 12 15 17 13 12 12 12 12 11 11 10 12 13 13 11 10 10 9 9 9 9 8 8
7 5 4 4 4 4 4 2 10 6 6 7 8 7 7 10 17 20 20 21 23 21 13 11 11 11 12 13 13 12 10 11 11 11 11 10 10 10 10 9 9 9 9
7 5 4 3 3 4 3 3 4 3 5 2 4 9 9 14 19 20 20 22 19 16 10 10 11 12 12 13 13 13 12 9 10 8 9 10 10 10 10 9 9 9 9
8 5 4 3 3 3 3 3 3 4 5 5 4 7 8 14 19 18 19 19 11 11 10 11 11 11 12 14 13 13 11 9 8 9 9 8 9 10 10 10 10 9 9
5 4 3 3 3 3 3 3 3 4 5 5 6 6 8 15 16 14 16 9 10 11 11 11 11 12 12 12 13 13 15 9 7 7 8 8 9 10 10 10 10 11 10
6 6 3 3 2 3 3 4 4 5 5 6 6 7 8 11 9 9 9 9 9 10 11 12 12 12 13 13 13 13 13 11 8 9 7 7 8 9 10 11 9 9 9
3 4 3 2 3 3 4 4 4 5 5 6 6 6 9 9 9 9 9 9 9 10 11 12 12 12 12 12 13 14 13 15 8 8 7 7 8 9 10 10 9 10 9
3 3 3 3 2 3 4 4 5 5 6 7 7 7 10 7 8 8 9 9 10 10 11 11 11 12 11 12 12 13 13 14 6 6 7 8 8 9 9 10 10 9 9
3 3 2 2 3 3 3 4 5 5 6 7 7 7 8 7 8 9 10 10 10 10 16 15 12 12 17 18 19 14 12 12 12 12 7 7 8 8 9 10 10 9 9
2 2 2 2 3 4 4 5 5 6 6 7 7 7 7 8 9 10 10 10 9 14 17 18 17 16 17 20 20 20 20 20 21 15 10 7 8 10 9 10 11 11 9
2 2 2 3 3 4 4 5 5 6 7 7 7 8 8 8 9 9 10 8 10 11 16 18 18 20 22 26 24 24 25 27 24 24 11 7 9 11 10 10 11 10 10
2 3 3 3 3 4 4 5 6 6 7 7 8 8 8 9 9 9 9 10 10 12 17 18 21 24 26 23 22 26 27 25 22 26 19 7 7 8 9 11 15 9 11
Wind_Direction
214 213 216 219 197 200 200 208 215 214 203 187 169 158 186 204 200 198 213 214 220 255 249 245 242 245 245 242 243 252 259 265 273 282 290 295 264 273 289 294 296 295 293
215 214 217 198 211 210 218 221 215 215 185 173 174 186 193 205 190 205 198 224 258 265 252 241 244 242 239 247 248 250 259 264 276 282 289 292 288 293 295 293 290 294 294
190 207 212 213 216 217 211 212 195 187 183 186 186 189 178 181 189 181 160 186 253 253 256 247 244 245 246 248 246 253 256 260 267 274 280 286 289 288 282 287 292 293 292
194 198 203 212 216 220 208 205 206 200 195 185 183 184 181 183 181 154 134 255 259 259 264 258 255 253 254 250 250 251 257 265 270 266 271 281 285 285 282 281 289 301 302
153 161 149 179 201 214 215 215 206 201 178 176 157 139 170 158 151 95 255 269 266 266 262 258 256 255 257 255 256 250 249 253 263 266 271 278 281 279 285 301 291 300 302
97 87 93 122 142 146 140 146 155 158 154 141 140 128 137 168 105 202 260 273 279 276 273 273 271 256 244 239 238 247 256 249 248 262 274 275 278 277 282 283 291 297 301
91 93 97 104 108 122 135 141 136 128 120 118 129 148 163 180 205 248 274 281 281 279 280 281 278 272 253 254 226 229 227 230 243 260 266 267 273 275 282 279 279 291 299
83 84 88 94 102 107 111 115 121 128 135 151 157 174 207 243 233 238 259 278 275 279 281 281 278 276 272 250 250 221 226 223 228 231 247 263 261 265 269 274 285 283 284
80 80 81 87 91 97 102 113 120 137 147 161 195 237 240 248 247 269 269 283 286 283 284 283 279 277 272 222 237 239 233 233 215 216 248 266 269 255 262 282 272 277 287
84 86 87 90 93 95 101 100 110 112 103 38 342 317 271 263 248 239 266 290 285 285 287 285 267 257 276 206 224 233 234 234 228 220 230 241 244 244 231 241 260 267 282
92 85 79 73 69 66 69 63 75 105 184 223 276 294 295 295 298 320 310 307 299 297 293 289 284 248 231 234 215 228 230 235 238 239 231 234 232 232 231 222 237 252 272
97 95 92 93 96 104 98 75 47 18 342 320 318 308 307 310 333 336 323 304 309 302 296 293 285 274 238 229 227 232 224 210 240 237 231 237 236 235 235 237 241 250 262
99 94 89 82 70 56 47 30 12 2 350 343 329 326 323 334 323 26 345 331 320 311 302 304 294 287 282 261 237 240 221 222 218 222 226 234 232 232 234 236 245 260 265
100 91 84 68 64 50 46 27 16 10 355 342 338 335 333 330 329 351 332 323 318 312 312 304 296 286 281 267 273 239 230 221 214 218 222 226 230 230 227 225 236 239 252
101 92 85 72 58 59 56 29 23 54 19 352 360 341 343 329 350 333 328 323 325 315 306 291 288 287 282 274 258 245 250 228 217 218 217 216 215 208 218 221 226 235 248
110 95 66 72 56 40 27 81 112 77 26 20 9 358 334 346 337 330 327 327 323 322 313 308 309 306 297 288 277 264 241 232 228 221 212 208 210 208 208 217 219 223 239
95 92 100 71 60 44 21 5 339 126 150 141 11 348 356 339 337 333 333 331 317 329 329 327 323 321 315 312 316 283 251 234 224 224 214 208 209 208 199 205 214 218 235
99 67 77 65 54 38 24 2 345 342 330 332 358 345 357 343 333 330 336 324 337 337 332 328 325 323 321 318 313 315 272 251 233 222 218 206 203 208 200 201 212 213 224
84 71 65 65 57 25 7 353 346 335 331 327 328 330 354 347 322 329 336 338 333 329 330 325 323 322 321 318 316 313 307 269 245 221 213 210 200 206 203 199 208 209 214
94 66 41 54 44 15 4 351 345 336 330 330 328 339 344 335 334 339 337 335 330 327 326 322 323 320 319 320 316 314 321 267 234 225 205 208 206 201 201 195 197 203 208
91 95 45 43 28 9 353 346 340 333 328 324 326 349 346 321 326 335 330 331 330 326 322 320 320 318 318 320 324 321 316 310 213 207 203 209 203 201 201 194 196 203 203
80 68 53 37 3 3 355 340 334 328 323 324 325 331 333 313 330 330 326 330 327 321 322 319 318 317 318 321 324 321 323 327 282 214 206 208 209 202 195 190 195 193 204
73 57 43 38 359 347 336 338 328 326 324 321 324 324 327 329 327 325 324 323 323 323 320 320 317 315 316 320 318 321 318 327 324 313 222 207 208 202 193 189 188 188 194
60 49 28 12 17 336 336 326 322 312 314 317 319 318 320 323 320 321 318 322 321 318 319 320 314 312 317 317 318 317 318 322 320 325 265 223 208 201 199 186 187 189 191
29 11 360 347 333 328 317 319 317 317 318 316 315 313 315 316 316 318 320 320 317 318 320 315 314 317 318 318 315 318 323 321 328 328 319 219 216 203 198 187 182 187 190
341 340 327 316 312 315 317 315 315 316 313 314 311 309 311 313 314 318 318 314 322 320 313 319 316 319 319 318 319 324 320 322 330 331 336 316 224 204 199 190 181 182 186